RH
91 89 90 88 85 78 76 75 73 70 64 60 60 62 66 72 74 68 72 86 92 92 87 79 77 78 75 77 78 79 79 79 78 80 83 83 83 81 78 76 75 73 72
92 90 89 86 84 78 74 71 67 64 61 59 56 53 52 63 64 68 68 74 84 92 94 79 78 79 75 77 79 81 82 81 80 82 80 80 82 83 79 80 82 79 74
90 91 89 86 81 74 71 68 66 65 64 56 54 51 51 50 52 56 61 73 78 82 93 94 91 81 84 88 86 87 87 88 88 86 85 86 86 85 84 83 84 84 86
91 90 89 84 82 81 78 75 72 68 64 59 55 55 53 52 50 52 54 61 72 77 83 92 93 94 90 88 91 89 88 87 84 83 84 84 83 84 84 83 82 82 83
94 90 87 86 85 84 82 72 77 66 59 52 48 50 52 58 55 53 57 59 66 74 76 84 90 93 92 91 88 85 83 82 81 80 81 80 80 81 81 80 80 79 78
92 89 89 90 86 83 80 73 63 63 58 53 44 49 54 56 54 62 65 62 68 73 76 78 83 85 91 84 82 80 79 78 78 77 77 76 75 76 76 76 76 75 74
91 88 90 92 90 82 76 64 61 60 67 59 66 60 58 54 55 60 63 70 72 73 70 73 74 79 84 87 81 76 76 74 73 73 72 70 70 72 73 74 73 72 71
89 86 88 91 94 81 70 63 65 76 73 67 74 76 76 61 52 56 65 62 74 74 73 67 69 73 78 84 83 80 73 70 69 68 67 68 68 69 69 68 66 67 66
91 88 93 91 88 78 72 72 72 68 78 74 62 82 88 93 62 63 68 72 71 71 72 72 68 70 76 80 86 86 79 72 69 69 65 62 60 59 58 60 61 63 63
89 94 90 89 86 87 76 73 72 77 76 77 67 60 68 64 74 67 66 72 72 68 70 68 72 71 72 77 79 81 78 72 68 66 64 61 60 58 58 59 60 61 61
89 86 90 88 86 83 80 69 73 69 73 73 69 65 65 72 65 64 64 71 72 78 77 72 72 75 76 73 73 74 73 67 66 66 64 63 62 61 59 58 59 60 58
84 88 83 87 89 86 80 78 77 72 68 66 66 61 60 55 59 65 72 74 75 77 80 77 66 67 68 72 69 68 66 66 64 64 64 64 64 63 61 59 58 57 63
90 84 80 82 86 84 81 77 76 71 65 63 60 65 63 65 69 68 70 79 74 76 78 79 77 76 60 65 68 71 65 63 63 63 63 63 63 63 61 60 59 59 58
94 85 80 76 70 71 74 71 72 71 63 68 64 67 74 72 70 66 70 76 78 79 77 78 78 77 69 71 62 66 73 64 64 64 63 64 64 63 61 61 61 60 60
90 90 81 74 65 63 60 60 63 66 65 71 74 74 75 78 79 75 72 68 73 75 78 77 77 75 66 69 60 62 75 56 57 58 59 59 60 63 63 62 61 61 61
94 93 92 88 79 68 60 58 60 61 63 73 74 69 74 77 79 79 77 71 71 72 84 80 82 72 68 57 62 62 64 63 53 53 54 56 58 62 63 62 62 63 62
90 87 88 85 81 71 59 59 61 58 59 61 62 64 70 69 75 78 78 74 72 73 84 87 79 77 70 63 61 62 62 65 70 52 54 54 56 56 55 55 56 56 56
87 87 85 84 79 76 69 62 56 58 57 59 60 58 61 57 71 72 74 73 72 76 79 82 80 79 70 68 68 66 55 54 69 56 55 56 57 57 57 56 54 52 54
94 91 88 89 88 84 72 62 59 59 58 58 56 54 58 58 71 73 75 75 76 68 77 76 81 80 77 74 70 72 74 78 58 59 58 58 56 54 52 51 52 53 55
96 94 91 87 85 79 73 65 59 58 58 61 64 60 57 56 66 69 68 73 71 76 74 74 76 76 77 79 81 76 80 83 77 60 60 58 57 57 58 58 59 60 56
97 96 96 96 92 85 76 78 73 65 70 64 65 57 61 60 60 60 64 72 71 73 71 70 75 79 81 81 81 87 82 85 85 83 75 72 74 74 73 73 69 64 59
97 96 96 95 96 97 87 81 84 91 89 87 83 87 74 65 60 61 62 63 73 85 92 90 83 81 91 90 88 85 85 83 91 84 81 78 77 76 76 76 56 59 57
97 97 98 98 98 99 97 98 97 93 92 92 88 82 79 74 80 79 67 67 67 69 75 91 94 96 94 85 77 78 80 81 83 78 83 86 81 78 76 63 63 56 53
98 98 98 98 98 99 97 92 90 92 90 82 79 79 79 78 73 73 73 73 75 70 66 60 79 84 77 80 73 75 80 83 82 80 84 98 88 83 77 77 64 55 56
97 98 97 98 97 98 96 85 89 89 81 76 72 69 69 75 63 66 79 87 82 79 68 67 67 67 66 70 75 89 95 96 92 79 84 96 88 84 80 81 78 61 62
97 96 98 98 95 98 91 85 87 86 85 72 70 70 67 76 64 66 79 89 91 82 76 76 83 78 75 73 74 82 93 96 97 93 80 93 91 88 89 80 79 76 78
Wind_Speed
8 8 6 5 6 6 8 8 8 8 10 11 10 11 11 10 10 6 5 24 27 27 19 7 11 14 16 17 18 18 17 16 15 14 13 12 11 12 10 10 11 12 11
8 8 7 7 7 7 6 7 8 8 8 9 12 11 11 10 10 9 7 8 21 26 27 10 10 12 17 18 20 18 16 15 13 14 14 14 14 15 16 16 13 9 10
9 9 7 7 7 7 11 9 9 9 9 9 12 10 9 10 9 10 9 8 8 19 27 31 17 10 16 19 18 13 18 23 23 22 21 21 21 22 23 23 23 22 19
9 8 8 7 6 6 7 8 8 9 8 8 9 8 8 9 11 12 10 8 9 8 14 25 30 23 17 18 20 25 27 27 27 27 27 27 27 26 25 24 23 22 22
8 8 7 7 7 6 6 7 5 7 8 8 9 8 9 9 9 8 11 11 12 11 8 15 24 28 23 26 27 29 28 27 27 26 26 26 25 24 24 23 22 22 21
9 9 7 8 7 8 7 6 10 5 6 9 10 9 8 7 7 8 9 8 10 12 10 11 9 11 24 21 24 25 25 24 24 24 23 23 22 22 22 22 21 21 20
9 10 8 7 5 8 9 9 10 11 4 5 6 5 6 8 10 8 7 8 10 10 11 10 8 7 8 21 20 22 22 22 22 21 20 19 19 18 19 20 20 19 20
9 9 11 8 6 8 9 8 7 5 3 2 4 3 3 3 6 8 7 7 9 7 9 11 11 11 9 8 14 17 18 17 19 18 18 18 17 15 16 17 16 17 17
8 9 8 9 8 7 8 6 5 6 4 3 5 4 4 3 3 4 6 6 7 7 6 8 10 10 10 9 11 10 17 16 17 18 15 14 13 12 14 15 16 16 16
8 7 9 9 9 5 9 6 4 3 5 5 2 4 5 5 5 2 3 4 5 7 7 6 7 8 9 8 14 18 15 15 18 15 14 14 13 12 13 14 14 15 15
6 7 7 7 8 6 6 10 7 6 3 4 3 3 4 4 4 4 3 1 3 4 4 4 4 5 7 8 8 13 17 15 14 14 14 14 13 13 13 12 13 14 13
5 6 6 5 5 6 7 5 6 7 6 5 3 3 4 4 3 4 4 2 3 2 3 4 5 5 6 6 10 14 16 15 15 15 15 14 13 13 13 12 12 12 15
3 6 6 5 3 4 6 6 5 6 6 5 6 3 3 3 4 4 4 3 3 1 2 3 4 4 4 4 7 12 15 14 14 14 13 13 12 12 12 11 12 12 12
7 9 6 6 6 5 5 6 4 4 6 5 7 5 4 3 3 3 5 6 3 2 2 1 3 3 3 3 8 12 6 13 13 13 12 12 12 12 12 12 12 12 12
7 8 7 8 6 4 5 5 5 6 6 5 6 6 4 3 3 3 4 4 6 4 2 2 2 3 3 3 6 5 6 11 12 11 11 12 12 11 12 11 12 11 12
8 10 8 7 9 5 4 3 4 6 9 4 5 8 5 3 4 4 4 3 3 5 4 1 1 1 3 3 6 5 6 9 10 10 10 10 10 11 11 11 11 11 11
9 10 10 10 7 7 6 5 3 7 10 7 5 8 7 5 4 4 4 3 4 3 5 2 1 1 3 3 4 4 5 5 4 9 10 9 10 9 9 10 10 9 9
9 12 12 11 8 7 8 6 4 4 7 8 7 8 8 6 6 5 4 5 3 3 5 5 2 2 3 3 3 4 3 3 4 7 9 9 10 11 11 10 9 9 9
11 10 11 11 9 8 7 6 5 6 6 6 5 8 7 8 6 4 4 5 4 3 3 6 4 2 2 1 3 3 3 3 3 8 10 11 10 10 9 9 10 9 8
12 12 10 11 11 11 7 6 7 8 8 5 6 6 6 6 8 7 6 6 5 5 5 6 4 3 3 2 3 3 3 3 3 3 5 7 9 9 9 10 9 9 9
11 12 12 11 9 11 6 8 7 8 8 7 6 6 6 8 13 9 6 5 6 5 4 5 4 3 2 2 2 0 2 1 2 3 3 3 3 3 4 8 7 9 9
12 12 13 12 12 8 18 16 11 9 7 7 7 5 4 11 13 17 15 12 8 5 3 3 3 3 3 3 2 1 1 2 1 1 3 3 2 3 3 3 11 10 9
12 12 12 11 10 9 19 16 14 7 7 7 7 7 6 5 9 7 15 16 13 12 7 5 5 3 3 3 4 2 1 1 1 2 2 2 1 2 2 4 12 8 6
10 10 10 10 10 8 17 18 18 8 7 6 6 5 7 6 7 9 8 8 7 6 6 5 6 5 4 5 4 3 3 1 2 2 2 2 1 2 3 4 7 3 9
10 9 8 10 9 9 20 17 13 8 8 7 5 5 6 6 13 14 8 7 6 5 8 10 9 8 7 7 5 3 1 3 2 1 1 1 2 3 2 3 3 4 11
9 8 9 7 10 8 20 18 12 7 8 6 5 5 12 7 13 13 7 6 6 4 5 5 4 6 6 5 6 3 3 2 1 2 1 1 2 2 4 2 2 2 3
Wind_Direction
109 110 104 101 95 96 92 91 85 80 74 69 62 59 53 44 44 34 35 35 33 31 28 106 118 121 113 107 101 95 89 83 79 75 74 74 70 72 85 77 72 74 77
122 120 114 106 93 95 91 93 94 87 77 75 66 53 48 47 42 34 36 29 33 31 26 116 109 129 123 112 98 85 81 75 77 79 70 68 63 67 64 56 49 57 69
129 123 118 108 105 104 106 101 90 85 79 70 67 56 49 42 41 37 37 27 16 31 34 45 41 126 115 105 96 90 84 73 73 68 68 68 68 70 68 65 60 56 54
130 123 120 115 115 107 110 105 105 94 86 81 75 59 53 44 35 33 36 27 24 21 25 36 41 47 103 96 107 91 82 77 74 71 66 64 62 58 55 54 54 54 50
120 122 121 121 117 108 97 109 87 97 101 89 83 68 53 43 36 30 31 28 28 27 21 27 39 39 61 74 84 82 80 76 73 70 69 64 59 56 54 50 47 46 45
121 119 118 123 125 119 109 102 104 72 105 108 89 73 58 49 44 36 27 26 27 26 19 23 25 33 43 65 75 81 79 76 72 68 64 61 58 55 53 49 46 44 41
134 132 129 127 130 133 130 123 112 112 93 126 104 75 62 58 50 39 27 31 26 23 25 24 22 23 25 43 71 78 79 75 68 64 61 58 55 53 53 51 44 39 37
143 144 146 145 127 128 129 140 136 124 89 355 110 101 83 19 44 33 26 38 24 22 28 28 28 24 22 27 37 60 77 73 72 66 54 55 54 48 45 47 44 41 39
139 145 141 144 137 143 151 142 132 122 130 36 45 127 115 167 118 0 23 29 35 30 25 20 30 29 23 25 25 33 61 70 68 63 58 54 55 51 48 46 44 44 43
140 135 145 147 144 138 148 148 128 116 116 136 97 39 53 125 143 111 20 22 32 35 23 23 22 28 30 24 25 31 52 63 62 60 57 54 50 50 48 45 41 43 43
115 131 137 140 142 146 150 152 137 137 108 132 122 139 70 63 69 125 136 30 40 22 26 27 25 25 21 32 28 32 41 60 64 65 59 54 48 44 46 46 43 44 45
127 105 116 114 129 137 151 148 132 140 134 120 119 124 148 152 165 129 113 114 116 16 33 26 29 31 25 27 38 45 52 54 58 60 58 51 48 46 41 44 44 44 47
158 143 124 129 123 129 133 130 140 131 140 134 141 131 122 128 130 118 109 122 126 144 57 40 26 25 35 28 42 40 57 57 60 60 60 56 51 46 44 44 46 43 45
134 120 110 111 113 129 130 126 125 122 126 124 130 122 121 109 114 130 139 137 96 97 47 139 13 28 27 28 54 48 35 64 61 59 56 51 45 46 49 50 47 44 35
117 101 113 112 82 102 126 134 141 132 119 118 120 117 107 91 89 108 121 133 138 142 162 234 127 17 39 43 62 41 32 59 64 61 58 54 47 44 45 42 38 32 30
106 112 106 96 112 83 95 107 130 127 119 119 124 115 103 97 92 85 100 97 96 128 128 177 115 104 28 63 57 53 48 44 48 58 60 57 53 53 47 40 34 31 23
122 116 112 108 107 111 88 80 104 122 118 115 110 117 109 115 104 101 98 96 94 99 110 116 97 65 60 70 47 48 55 49 13 57 56 57 54 51 45 41 33 24 16
122 122 115 111 110 99 100 106 117 98 116 119 121 109 115 109 92 102 102 102 107 92 118 125 117 99 91 57 69 66 25 43 26 38 56 56 52 46 37 30 16 8 3
128 119 123 125 116 102 93 99 109 101 96 106 117 118 121 121 110 107 104 103 97 89 97 132 126 114 94 72 74 58 49 24 22 46 59 48 39 28 13 7 3 1 358
126 123 125 123 122 110 111 113 113 100 91 79 91 98 110 115 122 117 105 108 105 94 93 106 89 101 106 63 84 108 61 44 39 16 27 31 20 15 10 9 1 359 349
121 119 118 114 114 109 125 114 99 103 103 102 82 100 105 119 119 120 119 116 108 98 105 108 99 103 101 103 108 100 97 32 28 25 346 340 354 356 357 358 341 337 340
124 126 123 124 119 118 129 127 121 114 119 119 113 88 107 113 113 111 112 117 121 127 112 113 110 116 111 114 109 101 96 56 13 354 8 315 19 345 332 333 337 334 342
130 128 128 130 130 135 142 136 131 126 137 132 130 130 115 105 95 97 105 100 99 100 113 139 124 131 128 157 135 111 108 117 204 290 29 296 337 328 300 314 329 330 349
127 126 125 129 130 135 144 152 151 141 129 118 126 125 119 112 113 112 105 94 82 82 83 91 112 129 118 142 123 134 141 148 279 271 158 254 320 273 294 299 322 44 24
115 117 124 128 136 145 148 156 142 128 125 126 130 121 121 132 141 132 112 112 103 74 111 115 119 129 129 150 140 98 40 89 312 273 57 158 306 295 290 308 325 343 351
108 116 120 131 155 145 149 158 150 139 138 139 123 135 152 160 146 141 131 133 120 137 120 91 78 77 73 65 93 108 151 146 167 340 252 341 319 4 331 287 294 316 335